N153PC KBUF-KSYR

Flight info

Callsign N153PC
Flight time 1h 13m
Altitude 7000
Route KBUF GEE V84 SYR KSYR
Aircraft C172/L-VGD/C

Departure

Time 2026-04-29 18:38
Airport Buffalo Niagara International Airport (KBUF)

Arrival

Time 2026-04-29 19:51
Airport Syracuse Hancock International Airport (KSYR)
Time Latitude Longitude Altitude Speed Heading
2026-04-29 18:05 42.94675 -78.73515 693 ft 0 kts 27°
2026-04-29 18:26 42.94678 -78.73514 693 ft 0 kts 25°
2026-04-29 18:26 42.94678 -78.73513 693 ft 0 kts 24°
2026-04-29 18:27 42.94694 -78.73527 693 ft 5 kts 268°
2026-04-29 18:27 42.94690 -78.73540 693 ft 0 kts 223°
2026-04-29 18:28 42.94679 -78.73550 694 ft 6 kts 209°
2026-04-29 18:29 42.94635 -78.73526 694 ft 10 kts 117°
2026-04-29 18:29 42.94605 -78.73497 694 ft 6 kts 181°
2026-04-29 18:29 42.94476 -78.73496 697 ft 17 kts 178°
2026-04-29 18:29 42.94389 -78.73490 700 ft 8 kts 186°
2026-04-29 18:30 42.94310 -78.73490 703 ft 13 kts 181°
2026-04-29 18:30 42.94248 -78.73519 704 ft 6 kts 174°
2026-04-29 18:30 42.94208 -78.73482 704 ft 9 kts 126°
2026-04-29 18:30 42.94147 -78.73368 703 ft 18 kts 127°
2026-04-29 18:31 42.94054 -78.73288 703 ft 14 kts 177°
2026-04-29 18:31 42.93953 -78.73286 703 ft 13 kts 179°
2026-04-29 18:31 42.93924 -78.73285 703 ft 0 kts 180°
2026-04-29 18:34 42.93922 -78.73285 703 ft 0 kts 178°
2026-04-29 18:34 42.93899 -78.73284 703 ft 10 kts 175°
2026-04-29 18:34 42.93783 -78.73257 701 ft 20 kts 144°
2026-04-29 18:35 42.93687 -78.73214 700 ft 14 kts 221°
2026-04-29 18:35 42.93590 -78.73347 696 ft 22 kts 223°
2026-04-29 18:35 42.93478 -78.73492 692 ft 21 kts 222°
2026-04-29 18:35 42.93398 -78.73602 690 ft 4 kts 257°
2026-04-29 18:36 42.93399 -78.73624 689 ft 0 kts 290°
2026-04-29 18:36 42.93402 -78.73631 689 ft 5 kts 303°
2026-04-29 18:37 42.93465 -78.73698 691 ft 12 kts 355°
2026-04-29 18:37 42.93576 -78.73570 696 ft 44 kts 43°
2026-04-29 18:37 42.93887 -78.73165 782 ft 68 kts 35°
2026-04-29 18:37 42.94220 -78.72709 992 ft 70 kts 41°
2026-04-29 18:38 42.94543 -78.72224 1209 ft 69 kts 40°
2026-04-29 18:38 42.94862 -78.71756 1455 ft 63 kts 40°
2026-04-29 18:38 42.95145 -78.71290 1651 ft 66 kts 46°
2026-04-29 18:38 42.95420 -78.70792 1861 ft 65 kts 44°
2026-04-29 18:39 42.95671 -78.70290 2054 ft 67 kts 46°
2026-04-29 18:39 42.95757 -78.69672 2271 ft 73 kts 87°
2026-04-29 18:39 42.95677 -78.68976 2464 ft 71 kts 81°
2026-04-29 18:39 42.95617 -78.68280 2622 ft 75 kts 88°
2026-04-29 18:40 42.95495 -78.67586 2832 ft 74 kts 94°
2026-04-29 18:40 42.95365 -78.66905 3023 ft 74 kts 92°
2026-04-29 18:40 42.95262 -78.66205 3190 ft 74 kts 82°
2026-04-29 18:40 42.95202 -78.65531 3399 ft 73 kts 93°
2026-04-29 18:41 42.94966 -78.63404 3913 ft 75 kts 86°
2026-04-29 18:41 42.94918 -78.62688 4092 ft 75 kts 88°
2026-04-29 18:42 42.94855 -78.61971 4259 ft 77 kts 90°
2026-04-29 18:42 42.94787 -78.61239 4420 ft 79 kts 90°
2026-04-29 18:42 42.94713 -78.60496 4585 ft 80 kts 92°
2026-04-29 18:42 42.94632 -78.59746 4746 ft 81 kts 94°
2026-04-29 18:43 42.94543 -78.58981 4909 ft 82 kts 95°
2026-04-29 18:43 42.94449 -78.58197 5058 ft 85 kts 96°
2026-04-29 18:43 42.94353 -78.57415 5240 ft 84 kts 97°
2026-04-29 18:43 42.94254 -78.56623 5409 ft 84 kts 100°
2026-04-29 18:44 42.94155 -78.55830 5571 ft 85 kts 99°
2026-04-29 18:44 42.94057 -78.55045 5743 ft 85 kts 101°
2026-04-29 18:44 42.93956 -78.54240 5928 ft 86 kts 100°
2026-04-29 18:44 42.93856 -78.53444 6109 ft 86 kts 102°
2026-04-29 18:45 42.93754 -78.52631 6293 ft 86 kts 103°
2026-04-29 18:45 42.93653 -78.51823 6473 ft 87 kts 104°
2026-04-29 18:45 42.93550 -78.51014 6650 ft 88 kts 103°
2026-04-29 18:45 42.93445 -78.50183 6824 ft 88 kts 105°
2026-04-29 18:46 42.93337 -78.49344 6947 ft 95 kts 105°
2026-04-29 18:46 42.93209 -78.48403 6962 ft 105 kts 105°
2026-04-29 18:46 42.93074 -78.47411 6959 ft 108 kts 105°
2026-04-29 18:46 42.92938 -78.46375 6959 ft 112 kts 105°
2026-04-29 18:47 42.92800 -78.45319 6959 ft 113 kts 105°
2026-04-29 18:47 42.92666 -78.44259 6956 ft 114 kts 104°
2026-04-29 18:47 42.92529 -78.43188 6963 ft 114 kts 104°
2026-04-29 18:47 42.92391 -78.42114 6967 ft 115 kts 104°
2026-04-29 18:48 42.92254 -78.41042 6962 ft 116 kts 104°
2026-04-29 18:48 42.92116 -78.39960 6959 ft 115 kts 104°
2026-04-29 18:48 42.91979 -78.38879 6959 ft 116 kts 104°
2026-04-29 18:48 42.91840 -78.37787 6954 ft 116 kts 104°
2026-04-29 18:49 42.91703 -78.36713 6950 ft 116 kts 104°
2026-04-29 18:49 42.91569 -78.35623 6948 ft 115 kts 103°
2026-04-29 18:49 42.91431 -78.34550 6953 ft 115 kts 105°
2026-04-29 18:49 42.91293 -78.33488 6957 ft 114 kts 105°
2026-04-29 18:50 42.91154 -78.32411 6957 ft 115 kts 105°
2026-04-29 18:50 42.91016 -78.31338 6953 ft 115 kts 106°
2026-04-29 18:50 42.90878 -78.30258 6953 ft 115 kts 105°
2026-04-29 18:50 42.90740 -78.29186 6953 ft 115 kts 105°
2026-04-29 18:51 42.90604 -78.28120 6952 ft 115 kts 105°
2026-04-29 18:51 42.90465 -78.27045 6943 ft 114 kts 105°
2026-04-29 18:51 42.90329 -78.25978 6942 ft 113 kts 104°
2026-04-29 18:51 42.90195 -78.24925 6948 ft 112 kts 105°
2026-04-29 18:52 42.90060 -78.23875 6946 ft 112 kts 104°
2026-04-29 18:52 42.89926 -78.22826 6949 ft 112 kts 105°
2026-04-29 18:52 42.89793 -78.21783 6954 ft 113 kts 105°
2026-04-29 18:52 42.89655 -78.20718 6960 ft 113 kts 105°
2026-04-29 18:53 42.89520 -78.19666 6955 ft 114 kts 105°
2026-04-29 18:53 42.89383 -78.18599 6950 ft 113 kts 105°
2026-04-29 18:53 42.89248 -78.17550 6954 ft 113 kts 105°
2026-04-29 18:53 42.89111 -78.16489 6948 ft 113 kts 105°
2026-04-29 18:54 42.88982 -78.15437 6949 ft 112 kts 105°
2026-04-29 18:54 42.88846 -78.14390 6954 ft 112 kts 105°
2026-04-29 18:54 42.88709 -78.13341 6957 ft 113 kts 105°
2026-04-29 18:54 42.88570 -78.12279 6955 ft 113 kts 105°
2026-04-29 18:55 42.88434 -78.11228 6965 ft 113 kts 104°
2026-04-29 18:55 42.88298 -78.10179 6963 ft 113 kts 104°
2026-04-29 18:55 42.88160 -78.09119 6964 ft 114 kts 104°
2026-04-29 18:55 42.88023 -78.08055 6954 ft 114 kts 104°
2026-04-29 18:56 42.87885 -78.06989 6950 ft 113 kts 104°
2026-04-29 18:56 42.87750 -78.05931 6949 ft 112 kts 104°
2026-04-29 18:56 42.87619 -78.04890 6947 ft 112 kts 104°
2026-04-29 18:56 42.87490 -78.03851 6950 ft 112 kts 105°
2026-04-29 18:57 42.87358 -78.02799 6956 ft 112 kts 105°
2026-04-29 18:57 42.87220 -78.01746 6950 ft 112 kts 105°
2026-04-29 18:57 42.87083 -78.00710 6946 ft 112 kts 106°
2026-04-29 18:57 42.86947 -77.99663 6949 ft 112 kts 106°
2026-04-29 18:58 42.86808 -77.98614 6958 ft 112 kts 104°
2026-04-29 18:58 42.86669 -77.97565 6960 ft 112 kts 104°
2026-04-29 18:58 42.86531 -77.96513 6960 ft 112 kts 104°
2026-04-29 18:58 42.86393 -77.95464 6957 ft 112 kts 103°
2026-04-29 18:59 42.86257 -77.94422 6956 ft 112 kts 104°
2026-04-29 18:59 42.86120 -77.93374 6959 ft 113 kts 104°
2026-04-29 18:59 42.85980 -77.92308 6946 ft 113 kts 104°
2026-04-29 18:59 42.85843 -77.91260 6940 ft 113 kts 104°
2026-04-29 19:00 42.85704 -77.90208 6940 ft 113 kts 104°
2026-04-29 19:00 42.85565 -77.89144 6935 ft 113 kts 104°
2026-04-29 19:00 42.85429 -77.88103 6926 ft 112 kts 104°
2026-04-29 19:00 42.85290 -77.87044 6932 ft 112 kts 105°
2026-04-29 19:01 42.85154 -77.86005 6933 ft 112 kts 105°
2026-04-29 19:01 42.85016 -77.84963 6935 ft 112 kts 105°
2026-04-29 19:01 42.84877 -77.83921 6935 ft 111 kts 104°
2026-04-29 19:01 42.84740 -77.82883 6931 ft 111 kts 104°
2026-04-29 19:02 42.84603 -77.81844 6931 ft 111 kts 105°
2026-04-29 19:02 42.84513 -77.81151 6933 ft 112 kts 105°
2026-04-29 19:02 42.84327 -77.79757 6931 ft 112 kts 105°
2026-04-29 19:02 42.84190 -77.78708 6933 ft 112 kts 106°
2026-04-29 19:03 42.84045 -77.77650 6930 ft 113 kts 106°
2026-04-29 19:03 42.83903 -77.76598 6931 ft 113 kts 107°
2026-04-29 19:03 42.83763 -77.75556 6925 ft 113 kts 105°
2026-04-29 19:03 42.83620 -77.74498 6930 ft 112 kts 106°
2026-04-29 19:04 42.83485 -77.73457 6932 ft 113 kts 103°
2026-04-29 19:04 42.83439 -77.72376 6936 ft 114 kts 95°
2026-04-29 19:04 42.83424 -77.71295 6936 ft 115 kts 96°
2026-04-29 19:04 42.83411 -77.70199 6935 ft 115 kts 96°
2026-04-29 19:05 42.83396 -77.69119 6929 ft 114 kts 97°
2026-04-29 19:05 42.83381 -77.68039 6930 ft 114 kts 96°
2026-04-29 19:05 42.83364 -77.66953 6933 ft 114 kts 96°
2026-04-29 19:05 42.83349 -77.65875 6930 ft 114 kts 97°
2026-04-29 19:06 42.83332 -77.64809 6937 ft 114 kts 97°
2026-04-29 19:06 42.83314 -77.63728 6936 ft 114 kts 97°
2026-04-29 19:06 42.83279 -77.61551 6936 ft 115 kts 97°
2026-04-29 19:07 42.83260 -77.60443 6934 ft 115 kts 97°
2026-04-29 19:07 42.83249 -77.59726 6933 ft 115 kts 97°
2026-04-29 19:07 42.83225 -77.58273 6935 ft 115 kts 97°
2026-04-29 19:07 42.83206 -77.57180 6941 ft 115 kts 98°
2026-04-29 19:08 42.83187 -77.56081 6943 ft 115 kts 97°
2026-04-29 19:08 42.83168 -77.54998 6941 ft 115 kts 97°
2026-04-29 19:08 42.83150 -77.53894 6946 ft 115 kts 97°
2026-04-29 19:08 42.83131 -77.52806 6936 ft 114 kts 98°
2026-04-29 19:09 42.83113 -77.51733 6940 ft 113 kts 98°
2026-04-29 19:09 42.83095 -77.50662 6943 ft 113 kts 99°
2026-04-29 19:09 42.83076 -77.49597 6943 ft 113 kts 99°
2026-04-29 19:09 42.83057 -77.48514 6948 ft 114 kts 99°
2026-04-29 19:10 42.83037 -77.47428 6948 ft 115 kts 99°
2026-04-29 19:10 42.83017 -77.46336 6946 ft 115 kts 99°
2026-04-29 19:10 42.82997 -77.45242 6954 ft 115 kts 99°
2026-04-29 19:10 42.82977 -77.44151 6953 ft 116 kts 99°
2026-04-29 19:11 42.82956 -77.43057 6945 ft 115 kts 99°
2026-04-29 19:11 42.82938 -77.41975 6942 ft 114 kts 99°
2026-04-29 19:11 42.82918 -77.40899 6951 ft 113 kts 100°
2026-04-29 19:11 42.82894 -77.39825 6954 ft 114 kts 99°
2026-04-29 19:12 42.82872 -77.38746 6947 ft 115 kts 99°
2026-04-29 19:12 42.82851 -77.37664 6949 ft 114 kts 99°
2026-04-29 19:12 42.82833 -77.36579 6947 ft 114 kts 99°
2026-04-29 19:12 42.82821 -77.35860 6946 ft 114 kts 99°
2026-04-29 19:13 42.82794 -77.34411 6949 ft 114 kts 99°
2026-04-29 19:13 42.82774 -77.33336 6951 ft 114 kts 100°
2026-04-29 19:13 42.82755 -77.32258 6948 ft 115 kts 101°
2026-04-29 19:13 42.82734 -77.31168 6944 ft 115 kts 100°
2026-04-29 19:14 42.82713 -77.30074 6943 ft 115 kts 101°
2026-04-29 19:14 42.82693 -77.28993 6942 ft 115 kts 101°
2026-04-29 19:14 42.82671 -77.27900 6941 ft 115 kts 101°
2026-04-29 19:14 42.82648 -77.26820 6938 ft 114 kts 100°
2026-04-29 19:15 42.82628 -77.25728 6933 ft 114 kts 98°
2026-04-29 19:15 42.82612 -77.24653 6930 ft 112 kts 100°
2026-04-29 19:15 42.82594 -77.23592 6940 ft 112 kts 102°
2026-04-29 19:15 42.82567 -77.22536 6940 ft 113 kts 102°
2026-04-29 19:16 42.82540 -77.21456 6937 ft 114 kts 102°
2026-04-29 19:16 42.82516 -77.20383 6934 ft 114 kts 101°
2026-04-29 19:16 42.82501 -77.19312 6924 ft 113 kts 101°
2026-04-29 19:16 42.82483 -77.18234 6921 ft 112 kts 101°
2026-04-29 19:17 42.82462 -77.17187 6935 ft 112 kts 102°
2026-04-29 19:17 42.82439 -77.16125 6935 ft 112 kts 102°
2026-04-29 19:17 42.82416 -77.15054 6927 ft 112 kts 101°
2026-04-29 19:17 42.82395 -77.13997 6932 ft 111 kts 102°
2026-04-29 19:18 42.82373 -77.12936 6930 ft 111 kts 102°
2026-04-29 19:18 42.82358 -77.12238 6937 ft 111 kts 102°
2026-04-29 19:18 42.82328 -77.10832 6947 ft 113 kts 102°
2026-04-29 19:18 42.82304 -77.09750 6935 ft 114 kts 102°
2026-04-29 19:19 42.82282 -77.08669 6925 ft 113 kts 102°
2026-04-29 19:19 42.82260 -77.07606 6926 ft 112 kts 102°
2026-04-29 19:19 42.82238 -77.06544 6930 ft 111 kts 103°
2026-04-29 19:19 42.82215 -77.05492 6926 ft 112 kts 103°
2026-04-29 19:20 42.82191 -77.04417 6928 ft 112 kts 103°
2026-04-29 19:20 42.82168 -77.03350 6917 ft 113 kts 103°
2026-04-29 19:20 42.82145 -77.02299 6915 ft 112 kts 103°
2026-04-29 19:20 42.82123 -77.01238 6923 ft 111 kts 102°
2026-04-29 19:21 42.82100 -77.00195 6915 ft 111 kts 102°
2026-04-29 19:21 42.82080 -76.99143 6921 ft 111 kts 103°
2026-04-29 19:21 42.82293 -76.98074 6923 ft 121 kts 72°
2026-04-29 19:21 42.82705 -76.97072 6915 ft 123 kts 69°
2026-04-29 19:22 42.83143 -76.96072 6925 ft 123 kts 68°
2026-04-29 19:22 42.83585 -76.95064 6920 ft 124 kts 68°
2026-04-29 19:22 42.84027 -76.94051 6911 ft 124 kts 68°
2026-04-29 19:22 42.84473 -76.93033 6927 ft 125 kts 68°
2026-04-29 19:23 42.84918 -76.92020 6917 ft 125 kts 67°
2026-04-29 19:23 42.85366 -76.91000 6910 ft 125 kts 67°
2026-04-29 19:23 42.85809 -76.89994 6918 ft 124 kts 67°
2026-04-29 19:23 42.86254 -76.88983 6918 ft 124 kts 67°
2026-04-29 19:24 42.86697 -76.87979 6918 ft 124 kts 67°
2026-04-29 19:24 42.87145 -76.86964 6911 ft 124 kts 67°
2026-04-29 19:24 42.87591 -76.85952 6915 ft 124 kts 67°
2026-04-29 19:24 42.88031 -76.84952 6919 ft 124 kts 68°
2026-04-29 19:25 42.88475 -76.83946 6911 ft 123 kts 68°
2026-04-29 19:25 42.88918 -76.82938 6907 ft 123 kts 68°
2026-04-29 19:25 42.89349 -76.81950 6917 ft 122 kts 68°
2026-04-29 19:25 42.89788 -76.80951 6914 ft 123 kts 66°
2026-04-29 19:26 42.90222 -76.79948 6924 ft 123 kts 68°
2026-04-29 19:26 42.90664 -76.78931 6924 ft 125 kts 67°
2026-04-29 19:26 42.91110 -76.77921 6921 ft 125 kts 67°
2026-04-29 19:26 42.91559 -76.76900 6919 ft 125 kts 67°
2026-04-29 19:27 42.92014 -76.75867 6918 ft 125 kts 67°
2026-04-29 19:27 42.92460 -76.74852 6916 ft 125 kts 67°
2026-04-29 19:27 42.92912 -76.73822 6916 ft 125 kts 67°
2026-04-29 19:27 42.93358 -76.72803 6913 ft 125 kts 68°
2026-04-29 19:28 42.93798 -76.71790 6915 ft 125 kts 68°
2026-04-29 19:28 42.94246 -76.70757 6903 ft 126 kts 68°
2026-04-29 19:28 42.94691 -76.69735 6909 ft 125 kts 68°
2026-04-29 19:28 42.95137 -76.68713 6910 ft 125 kts 67°
2026-04-29 19:29 42.95580 -76.67696 6913 ft 125 kts 67°
2026-04-29 19:29 42.96019 -76.66691 6931 ft 123 kts 66°
2026-04-29 19:29 42.96460 -76.65683 6924 ft 124 kts 68°
2026-04-29 19:29 42.96908 -76.64661 6927 ft 124 kts 67°
2026-04-29 19:30 42.97351 -76.63653 6924 ft 124 kts 65°
2026-04-29 19:30 42.97792 -76.62640 6926 ft 124 kts 66°
2026-04-29 19:30 42.98232 -76.61633 6928 ft 125 kts 67°
2026-04-29 19:30 42.98675 -76.60617 6930 ft 125 kts 66°
2026-04-29 19:31 42.99121 -76.59592 6933 ft 125 kts 63°
2026-04-29 19:31 42.99568 -76.58565 6925 ft 125 kts 67°
2026-04-29 19:31 43.00011 -76.57552 6929 ft 125 kts 66°
2026-04-29 19:31 43.00455 -76.56533 6929 ft 125 kts 66°
2026-04-29 19:32 43.00901 -76.55514 6928 ft 124 kts 66°
2026-04-29 19:32 43.01340 -76.54501 6941 ft 124 kts 65°
2026-04-29 19:32 43.01786 -76.53471 6939 ft 125 kts 66°
2026-04-29 19:32 43.02233 -76.52445 6932 ft 126 kts 66°
2026-04-29 19:33 43.02675 -76.51427 6933 ft 126 kts 66°
2026-04-29 19:33 43.03122 -76.50396 6937 ft 125 kts 66°
2026-04-29 19:33 43.03571 -76.49364 6940 ft 126 kts 66°
2026-04-29 19:33 43.04156 -76.48467 6954 ft 131 kts 33°
2026-04-29 19:34 43.05001 -76.47991 6948 ft 133 kts 16°
2026-04-29 19:34 43.05912 -76.47674 6950 ft 134 kts 11°
2026-04-29 19:34 43.06820 -76.47427 6940 ft 134 kts
2026-04-29 19:34 43.07742 -76.47207 6939 ft 133 kts
2026-04-29 19:35 43.08655 -76.47004 6946 ft 133 kts
2026-04-29 19:35 43.09567 -76.46817 6943 ft 130 kts
2026-04-29 19:35 43.10399 -76.47066 6840 ft 118 kts 315°
2026-04-29 19:35 43.10829 -76.47893 6687 ft 100 kts 269°
2026-04-29 19:36 43.10884 -76.48800 6534 ft 97 kts 265°
2026-04-29 19:36 43.10975 -76.49716 6376 ft 97 kts 263°
2026-04-29 19:36 43.11051 -76.50611 6222 ft 97 kts 264°
2026-04-29 19:36 43.11167 -76.51534 6058 ft 98 kts 265°
2026-04-29 19:37 43.11283 -76.52449 5948 ft 96 kts 265°
2026-04-29 19:37 43.11336 -76.53043 5943 ft 94 kts 259°
2026-04-29 19:37 43.11289 -76.54196 5955 ft 84 kts 227°
2026-04-29 19:37 43.10820 -76.54529 5951 ft 78 kts 178°
2026-04-29 19:38 43.10332 -76.54161 5954 ft 88 kts 134°
2026-04-29 19:38 43.10144 -76.53317 5942 ft 94 kts 116°
2026-04-29 19:38 43.09974 -76.52451 5928 ft 95 kts 115°
2026-04-29 19:38 43.09828 -76.51553 5938 ft 96 kts 108°
2026-04-29 19:39 43.09756 -76.50670 6028 ft 88 kts 107°
2026-04-29 19:39 43.09713 -76.49801 5953 ft 95 kts 101°
2026-04-29 19:39 43.09705 -76.48895 5919 ft 94 kts 100°
2026-04-29 19:39 43.09747 -76.48010 5910 ft 94 kts 96°
2026-04-29 19:40 43.09799 -76.47105 5890 ft 98 kts 94°
2026-04-29 19:40 43.09868 -76.46150 5796 ft 104 kts 91°
2026-04-29 19:40 43.09913 -76.45146 5505 ft 104 kts 101°
2026-04-29 19:40 43.09918 -76.44199 5339 ft 93 kts 105°
2026-04-29 19:41 43.09873 -76.43323 5118 ft 91 kts 107°
2026-04-29 19:41 43.09784 -76.42460 4845 ft 95 kts 106°
2026-04-29 19:41 43.09748 -76.41557 4629 ft 95 kts 100°
2026-04-29 19:41 43.09800 -76.40636 4353 ft 103 kts 91°
2026-04-29 19:42 43.09871 -76.39668 4078 ft 102 kts 95°
2026-04-29 19:42 43.09913 -76.39032 3899 ft 102 kts 94°
2026-04-29 19:42 43.09956 -76.37772 3479 ft 104 kts 99°
2026-04-29 19:42 43.09973 -76.36806 3217 ft 100 kts 94°
2026-04-29 19:43 43.09970 -76.35893 3017 ft 90 kts 102°
2026-04-29 19:43 43.10070 -76.35031 2742 ft 94 kts 93°
2026-04-29 19:43 43.10089 -76.34177 2524 ft 91 kts 92°
2026-04-29 19:43 43.10166 -76.33307 2318 ft 89 kts 91°
2026-04-29 19:44 43.10194 -76.32503 2195 ft 82 kts 98°
2026-04-29 19:44 43.10241 -76.31708 2123 ft 84 kts 99°
2026-04-29 19:44 43.10252 -76.30912 2104 ft 85 kts 98°
2026-04-29 19:44 43.10280 -76.30105 2102 ft 84 kts 99°
2026-04-29 19:45 43.10294 -76.29309 2115 ft 83 kts 97°
2026-04-29 19:45 43.10302 -76.28535 2113 ft 82 kts 97°
2026-04-29 19:45 43.10328 -76.27754 2110 ft 82 kts 96°
2026-04-29 19:45 43.10355 -76.26972 2103 ft 81 kts 101°
2026-04-29 19:46 43.10366 -76.26208 2095 ft 83 kts 99°
2026-04-29 19:46 43.10369 -76.25400 2067 ft 83 kts 98°
2026-04-29 19:46 43.10342 -76.24638 2074 ft 76 kts 103°
2026-04-29 19:46 43.10418 -76.23867 1993 ft 82 kts 88°
2026-04-29 19:47 43.10497 -76.23167 1963 ft 68 kts 99°
2026-04-29 19:47 43.10510 -76.22512 1978 ft 69 kts 99°
2026-04-29 19:47 43.10510 -76.21857 1817 ft 68 kts 102°
2026-04-29 19:47 43.10525 -76.21191 1674 ft 70 kts 104°
2026-04-29 19:48 43.10548 -76.20525 1569 ft 69 kts 101°
2026-04-29 19:48 43.10564 -76.20087 1493 ft 70 kts 97°
2026-04-29 19:48 43.10589 -76.19190 1361 ft 73 kts 98°
2026-04-29 19:48 43.10607 -76.18496 1323 ft 71 kts 99°
2026-04-29 19:49 43.10635 -76.17809 1222 ft 74 kts 101°
2026-04-29 19:49 43.10647 -76.17108 1130 ft 75 kts 97°
2026-04-29 19:49 43.10694 -76.16378 997 ft 76 kts 95°
2026-04-29 19:49 43.10717 -76.15661 889 ft 75 kts 97°
2026-04-29 19:50 43.10741 -76.14953 769 ft 75 kts 94°
2026-04-29 19:50 43.10762 -76.14252 702 ft 72 kts 94°
2026-04-29 19:50 43.10783 -76.13563 593 ft 73 kts 95°
2026-04-29 19:50 43.10808 -76.12878 483 ft 70 kts 82°
2026-04-29 19:51 43.10836 -76.12249 421 ft 59 kts 82°
2026-04-29 19:51 43.10851 -76.11770 418 ft 43 kts 89°
2026-04-29 19:51 43.10858 -76.11425 417 ft 31 kts 83°
2026-04-29 19:51 43.10773 -76.11296 415 ft 13 kts 178°
2026-04-29 19:52 43.10764 -76.11296 415 ft 2 kts 188°
2026-04-29 19:52 43.10738 -76.11363 416 ft 16 kts 259°
2026-04-29 19:52 43.10734 -76.11563 418 ft 20 kts 259°
2026-04-29 19:52 43.10717 -76.11681 420 ft 8 kts 210°
2026-04-29 19:53 43.10686 -76.11681 421 ft 3 kts 154°
2026-04-29 19:53 43.10668 -76.11646 421 ft 0 kts 86°